Weather History for PAHO - August, 2013

Change the Weather History Date:

Monday, August 19, 2013

  Actual Average Record
Temperature  
Mean Temperature 56 °F -  
Max Temperature 60 °F 59 °F 68 °F (1983)
Min Temperature 53 °F 46 °F 34 °F (1943)
Degree Days  
Heating Degree Days 8    
Growing Degree Days 6 (Base 50)    
Moisture  
Dew Point 51 °F    
Average Humidity 80    
Maximum Humidity 87    
Minimum Humidity 67    
Precipitation  
Precipitation 0.18 in - - ()
Sea Level Pressure  
Sea Level Pressure 29.73 in    
Wind  
Wind Speed 1 mph (West)    
Max Wind Speed 7 mph    
Max Gust Speed -    
Visibility 9 miles    
Events Rain    
Averages and records for this station are not official NWS values.
T = Trace of Precipitation, MM = Missing Value Source: NWS Daily Summary

Daily Weather History Graph

Daily Weather History Graph

Search for Another Location

Airport or City:

Trip Planner

Search our weather history database for the weather conditions in past years. The results will help you decide how hot, cold, wet, or windy it might be!

Date:

Astronomy

Aug. 19, 2013 Rise Set
Actual Time 6:32 AM AKDT 9:44 PM AKDT
Civil Twilight 5:43 AM AKDT 10:32 PM AKDT
Nautical Twilight 4:35 AM AKDT 11:39 PM AKDT
Astronomical Twilight 2:41 AM AKDT 1:58 AM AKDT
Moon 8:38 PM AKDT (8/19) 4:56 AM AKDT (8/19)
Length of Visible Light 16h 49m
Length of Day
15h 12m
Waxing Gibbous, 98% of the Moon is Illuminated
Aug 19
Waxing Gibbous
Aug 20
Full
Aug 28
Last Quarter
Sep 5
New
Sep 12
First Quarter

Hourly Weather History & Observations

Time (AKDT) Temp. Dew Point Humidity Pressure Visibility Wind Dir Wind Speed Gust Speed Precip Events Conditions
12:53 AM 60.1 °F 52.0 °F 75% 29.68 in 10.0 mi East 3.5 mph - N/A   Overcast
1:53 AM 57.0 °F 51.1 °F 81% 29.68 in 10.0 mi Calm Calm - N/A   Overcast
2:53 AM 55.9 °F 50.0 °F 80% 29.68 in 10.0 mi Calm Calm - N/A   Overcast
3:53 AM 57.9 °F 50.0 °F 75% 29.68 in 10.0 mi Calm Calm - N/A   Overcast
4:53 AM 57.0 °F 51.1 °F 81% 29.69 in 10.0 mi Calm Calm - N/A   Overcast
5:53 AM 57.0 °F 51.1 °F 81% 29.69 in 10.0 mi Calm Calm - N/A   Overcast
6:53 AM 57.0 °F 51.1 °F 81% 29.69 in 10.0 mi Calm Calm - N/A   Overcast
7:53 AM 57.9 °F 51.1 °F 78% 29.70 in 10.0 mi Calm Calm - N/A   Overcast
8:51 AM 57.2 °F 51.8 °F 82% 29.70 in 10.0 mi Calm Calm - N/A   Overcast
8:53 AM 57.9 °F 51.1 °F 78% 29.70 in 10.0 mi Calm Calm - N/A   Overcast
9:53 AM 59.0 °F 51.1 °F 75% 29.71 in 10.0 mi Calm Calm - N/A   Overcast
10:28 AM 59.0 °F 48.2 °F 67% 29.72 in 10.0 mi West 3.5 mph - 0.00 in Rain Light Rain
10:53 AM 57.9 °F 50.0 °F 75% 29.73 in 7.0 mi Calm Calm - 0.02 in Rain Light Rain
11:53 AM 57.9 °F 52.0 °F 81% 29.73 in 10.0 mi Calm Calm - 0.04 in Rain Light Rain
12:53 PM 59.0 °F 52.0 °F 78% 29.74 in 10.0 mi West 4.6 mph - 0.02 in Rain Light Rain
1:53 PM 57.9 °F 51.1 °F 78% 29.75 in 7.0 mi West 4.6 mph - 0.02 in Rain Light Rain
2:08 PM 57.2 °F 51.8 °F 82% 29.75 in 1.8 mi West 3.5 mph - 0.04 in Rain Heavy Rain
2:15 PM 57.2 °F 51.8 °F 82% 29.75 in 7.0 mi WNW 3.5 mph - 0.06 in Rain Rain
2:53 PM 57.9 °F 52.0 °F 81% 29.75 in 7.0 mi NW 3.5 mph - 0.07 in   Overcast
3:53 PM 55.9 °F 52.0 °F 87% 29.75 in 10.0 mi East 4.6 mph - N/A   Overcast
4:32 PM 57.2 °F 51.8 °F 82% 29.75 in 10.0 mi Calm Calm - N/A   Overcast
4:53 PM 57.0 °F 51.1 °F 81% 29.75 in 10.0 mi Calm Calm - N/A   Overcast
5:00 PM 57.2 °F 51.8 °F 82% 29.75 in 10.0 mi Calm Calm - N/A   Overcast
5:07 PM 57.2 °F 51.8 °F 82% 29.75 in 10.0 mi Calm Calm - N/A   Overcast
5:53 PM 57.9 °F 52.0 °F 81% 29.74 in 10.0 mi Calm Calm - 0.00 in   Overcast
6:53 PM 57.0 °F 52.0 °F 83% 29.75 in 10.0 mi Calm Calm - N/A   Overcast
7:53 PM 57.0 °F 52.0 °F 83% 29.75 in 10.0 mi SE 3.5 mph - 0.01 in Rain Light Rain
8:53 PM 55.9 °F 51.1 °F 84% 29.75 in 10.0 mi Calm Calm - 0.00 in   Overcast
9:53 PM 55.0 °F 51.1 °F 86% 29.76 in 9.0 mi Calm Calm - N/A   Mostly Cloudy
10:53 PM 53.1 °F 48.9 °F 86% 29.76 in 10.0 mi Calm Calm - N/A   Partly Cloudy
11:53 PM 53.1 °F 48.0 °F 83% 29.78 in 10.0 mi West 6.9 mph - N/A   Overcast